Simultaneous Nadir Overpasses (SNOs) Predictions

Prediction of SNOs between GOES-14 and AQUA Satellite Orbit:

Table of predicted SNOs for the next 14.0 days since TLE Epoch: 1/7/2025
Index Date Time (GOES-14) GOES-14 Lat,Lon AQUA Lat,Lon Distance(km) Time Diff (sec)
1 01/08/2025 21:31:24 -0.27,-108.19 0.13,-106.38 206.49 80
2 01/09/2025 09:53:32 0.29,-108.24 0.92,-111.08 323.47 80
3 01/11/2025 09:31:48 0.29,-108.22 -0.09,-106.42 204.94 80
4 01/11/2025 21:54:05 -0.31,-108.16 -0.93,-111.16 340.73 80
5 01/13/2025 21:32:19 -0.31,-108.14 0.06,-106.48 188.43 80
6 01/14/2025 09:54:27 0.32,-108.19 0.94,-111.19 341.20 80
7 01/16/2025 09:32:39 0.32,-108.17 -0.03,-106.50 189.19 80
8 01/16/2025 21:54:55 -0.34,-108.11 -1.01,-111.24 355.86 80
9 01/18/2025 21:33:06 -0.33,-108.10 -0.00,-106.55 175.56 80
10 01/19/2025 09:55:12 0.34,-108.15 1.02,-111.25 353.61 80
